Weather History for KOGA - May, 2014

Change the Weather History Date:

Thursday, May 15, 2014

  Actual Average Record
Temperature  
Mean Temperature 46 °F -  
Max Temperature 61 °F 74 °F 91 °F (2001)
Min Temperature 32 °F 44 °F 30 °F (1973)
Degree Days  
Heating Degree Days 18    
Moisture  
Dew Point 29 °F    
Average Humidity 58    
Maximum Humidity 96    
Minimum Humidity 20    
Precipitation  
Precipitation 0.03 in - - ()
Sea Level Pressure  
Sea Level Pressure 30.21 in    
Wind  
Wind Speed 5 mph (NW)    
Max Wind Speed 17 mph    
Max Gust Speed 26 mph    
Visibility 9 miles    
Events      
Averages and records for this station are not official NWS values.
T = Trace of Precipitation, MM = Missing Value Source: NWS Daily Summary

Daily Weather History Graph

Daily Weather History Graph

Search for Another Location

Airport or City:

Trip Planner

Search our weather history database for the weather conditions in past years. The results will help you decide how hot, cold, wet, or windy it might be!

Date:

Astronomy

May. 15, 2014 Rise Set
Actual Time 5:28 AM MDT 7:58 PM MDT
Civil Twilight 4:57 AM MDT 8:29 PM MDT
Nautical Twilight 4:18 AM MDT 9:09 PM MDT
Astronomical Twilight 3:35 AM MDT 9:52 PM MDT
Moon 9:08 PM MDT (5/15) 6:17 AM MDT (5/15)
Length of Visible Light 15h 32m
Length of Day
14h 29m
Full, 99% of the Moon is Illuminated
May 15
Full
May 21
Last Quarter
May 28
New
Jun 5
First Quarter
Jun 12
Full

Hourly Weather History & Observations

Time (MDT) Temp. Windchill Dew Point Humidity Pressure Visibility Wind Dir Wind Speed Gust Speed Precip Events Conditions
12:15 AM 36.0 °F 31.1 °F 33.6 °F 91% 30.28 in 10.0 mi West 5.8 mph - N/A   Scattered Clouds
12:35 AM 36.7 °F 32.9 °F 34.7 °F 93% 30.28 in 10.0 mi West 4.6 mph - N/A   Mostly Cloudy
12:55 AM 36.7 °F - 34.5 °F 92% 30.27 in 10.0 mi Calm Calm - N/A   Mostly Cloudy
1:15 AM 36.5 °F - 34.3 °F 92% 30.27 in 10.0 mi Calm Calm - N/A   Scattered Clouds
1:35 AM 36.0 °F - 34.0 °F 93% 30.27 in 7.0 mi Calm Calm - N/A   Clear
1:55 AM 35.2 °F - 33.4 °F 93% 30.27 in 10.0 mi Calm Calm - N/A   Clear
2:15 AM 36.3 °F - 34.3 °F 93% 30.26 in 10.0 mi Calm Calm - N/A   Mostly Cloudy
2:35 AM 34.0 °F 29.8 °F 32.2 °F 93% 30.25 in 7.0 mi WSW 4.6 mph - N/A   Scattered Clouds
2:55 AM 32.4 °F 29.1 °F 31.3 °F 96% 30.25 in 5.0 mi WNW 3.5 mph - N/A   Clear
3:15 AM 34.2 °F 31.2 °F 32.7 °F 94% 30.26 in 7.0 mi NW 3.5 mph - N/A   Mostly Cloudy
3:35 AM 34.2 °F 29.0 °F 32.4 °F 93% 30.26 in 10.0 mi WSW 5.8 mph - N/A   Overcast
3:55 AM 34.9 °F 30.8 °F 32.9 °F 92% 30.26 in 7.0 mi WSW 4.6 mph - N/A   Overcast
4:15 AM 34.7 °F 31.8 °F 32.9 °F 93% 30.25 in 5.0 mi WSW 3.5 mph - N/A   Mostly Cloudy
4:35 AM 34.5 °F 31.6 °F 32.7 °F 93% 30.25 in 5.0 mi West 3.5 mph - N/A   Mostly Cloudy
4:55 AM 34.7 °F 31.8 °F 32.9 °F 93% 30.25 in 5.0 mi WSW 3.5 mph - N/A   Mostly Cloudy
5:15 AM 34.2 °F - 32.5 °F 94% 30.25 in 5.0 mi Calm Calm - N/A   Mostly Cloudy
5:35 AM 33.8 °F - 32.2 °F 94% 30.25 in 5.0 mi Calm Calm - N/A   Scattered Clouds
5:55 AM 34.0 °F - 32.4 °F 94% 30.25 in 5.0 mi Calm Calm - N/A   Scattered Clouds
6:15 AM 32.7 °F - 31.6 °F 96% 30.25 in 10.0 mi Calm Calm - N/A   Clear
6:35 AM 34.0 °F - 32.0 °F 92% 30.25 in 10.0 mi Calm Calm - N/A   Clear
6:55 AM 35.6 °F - 33.1 °F 91% 30.25 in 10.0 mi Calm Calm - N/A   Scattered Clouds
7:15 AM 37.8 °F - 33.8 °F 86% 30.25 in 10.0 mi Calm Calm - N/A   Scattered Clouds
7:35 AM 39.4 °F - 35.8 °F 87% 30.25 in 10.0 mi Calm Calm - N/A   Scattered Clouds
7:55 AM 42.4 °F 39.6 °F 37.4 °F 82% 30.25 in 10.0 mi West 4.6 mph - N/A   Mostly Cloudy
8:15 AM 44.4 °F 41.2 °F 33.8 °F 66% 30.25 in 10.0 mi West 5.8 mph - N/A   Scattered Clouds
8:35 AM 45.7 °F 42.7 °F 34.9 °F 66% 30.25 in 10.0 mi West 5.8 mph - N/A   Clear
8:55 AM 46.9 °F - 35.1 °F 63% 30.25 in 10.0 mi West 4.6 mph - N/A   Clear
9:15 AM 48.7 °F - 34.7 °F 58% 30.24 in 10.0 mi West 5.8 mph - N/A   Clear
9:35 AM 49.6 °F - 35.4 °F 58% 30.24 in 10.0 mi West 4.6 mph - N/A   Clear
9:55 AM 51.6 °F - 32.5 °F 48% 30.23 in 10.0 mi Calm Calm - N/A   Scattered Clouds
10:15 AM 53.4 °F - 29.3 °F 40% 30.24 in 10.0 mi North 10.4 mph - N/A   Scattered Clouds
10:35 AM 54.5 °F - 27.3 °F 35% 30.24 in 10.0 mi NNW 11.5 mph 20.7 mph N/A   Scattered Clouds
10:55 AM 54.9 °F - 29.3 °F 38% 30.23 in 10.0 mi North 11.5 mph 17.3 mph N/A   Clear
11:35 AM 55.6 °F - 26.1 °F 32% 30.23 in 10.0 mi North 11.5 mph 20.7 mph N/A   Mostly Cloudy
11:55 AM 56.1 °F - 26.1 °F 31% 30.22 in 10.0 mi North 12.7 mph 16.1 mph N/A   Mostly Cloudy
12:15 PM 56.3 °F - 26.1 °F 31% 30.22 in 10.0 mi WNW 9.2 mph 17.3 mph N/A   Mostly Cloudy
1:15 PM 59.2 °F - 23.9 °F 26% 30.21 in 10.0 mi NNW 11.5 mph 25.3 mph N/A   Scattered Clouds
1:35 PM 58.5 °F - 23.4 °F 26% 30.20 in 10.0 mi NNW 15.0 mph 26.5 mph N/A   Scattered Clouds
1:55 PM 59.5 °F - 23.4 °F 25% 30.20 in 10.0 mi NNW 13.8 mph 21.9 mph N/A   Scattered Clouds
2:15 PM 59.7 °F - 21.9 °F 23% 30.20 in 10.0 mi NNW 16.1 mph 25.3 mph N/A   Scattered Clouds
2:35 PM 60.4 °F - 21.6 °F 22% 30.19 in 10.0 mi NNW 11.5 mph 23.0 mph N/A   Scattered Clouds
2:55 PM 59.9 °F - 21.0 °F 22% 30.18 in 10.0 mi NNW 17.3 mph 21.9 mph N/A   Scattered Clouds
3:15 PM 61.2 °F - 20.7 °F 21% 30.18 in 10.0 mi NW 11.5 mph 18.4 mph N/A   Scattered Clouds
3:35 PM 61.9 °F - 21.4 °F 21% 30.18 in 10.0 mi NNW 11.5 mph 19.6 mph N/A   Scattered Clouds
3:55 PM 60.6 °F - 19.8 °F 21% 30.17 in 10.0 mi NW 12.7 mph 20.7 mph N/A   Clear
4:15 PM 61.2 °F - 19.4 °F 20% 30.17 in 10.0 mi NNW 17.3 mph 20.7 mph N/A   Clear
4:35 PM 61.7 °F - 20.8 °F 21% 30.17 in 10.0 mi North 13.8 mph 21.9 mph N/A   Clear
4:55 PM 61.3 °F - 20.3 °F 21% 30.17 in 10.0 mi NNW 16.1 mph 19.6 mph N/A   Clear
5:15 PM 61.0 °F - 19.2 °F 20% 30.16 in 10.0 mi NNW 13.8 mph 21.9 mph N/A   Clear
5:35 PM 61.0 °F - 19.4 °F 20% 30.15 in 10.0 mi NNW 15.0 mph 23.0 mph N/A   Clear
5:55 PM 60.1 °F - 20.3 °F 22% 30.15 in 10.0 mi North 16.1 mph 19.6 mph N/A   Clear
6:15 PM 59.5 °F - 19.9 °F 22% 30.15 in 10.0 mi North 5.8 mph - N/A   Clear
6:35 PM 59.2 °F - 21.0 °F 23% 30.14 in 10.0 mi North 8.1 mph - N/A   Clear
6:55 PM 58.1 °F - 22.5 °F 25% 30.14 in 10.0 mi North 9.2 mph - N/A   Clear
7:15 PM 55.8 °F - 24.4 °F 30% 30.14 in 10.0 mi North 8.1 mph - N/A   Clear
7:35 PM 53.8 °F - 26.8 °F 35% 30.13 in 10.0 mi North 3.5 mph - N/A   Clear
7:55 PM 49.5 °F - 30.6 °F 48% 30.13 in 10.0 mi North 4.6 mph - N/A   Clear
8:15 PM 47.7 °F - 28.8 °F 48% 30.13 in 10.0 mi Calm Calm - N/A   Clear
8:35 PM 48.2 °F - 27.3 °F 44% 30.13 in 10.0 mi Calm Calm - N/A   Clear
8:55 PM 46.0 °F - 28.8 °F 51% 30.13 in 10.0 mi Calm Calm - N/A   Clear
9:15 PM 44.6 °F - 29.7 °F 56% 30.13 in 10.0 mi Calm Calm - N/A   Clear
9:35 PM 42.4 °F - 30.2 °F 62% 30.14 in 10.0 mi Calm Calm - N/A   Clear
9:55 PM 40.3 °F - 30.9 °F 69% 30.14 in 10.0 mi Calm Calm - N/A   Clear
10:15 PM 41.4 °F - 29.5 °F 63% 30.14 in 10.0 mi Calm Calm - N/A   Clear
10:35 PM 42.3 °F - 30.2 °F 62% 30.14 in 10.0 mi Calm Calm - N/A   Clear
10:55 PM 37.4 °F - 30.4 °F 76% 30.13 in 10.0 mi Calm Calm - N/A   Clear
11:15 PM 38.5 °F - 30.2 °F 72% 30.13 in 10.0 mi Calm Calm - N/A   Clear
11:35 PM 39.6 °F - 30.2 °F 69% 30.12 in 10.0 mi Calm Calm - N/A   Clear